x

Big Bay, Mi (bigm4) Weather Station

11:40pm - Fri 17th Nov 2017 All times are CST. -6 hours from GMT.

  • Wind
    3mph, 7mph gusts
  • Air Temp 34°f
  • Sea Pressure 1002.4mb
  • Big Bay, Mi
  • Big Bay, Mi

More Historic Weather Station data

Upgrade to MSW Pro to gain access to the past 30 days of data for over 8000 Wavebouys and Weather Stations around the globe.

Join

Comparision Forecast

View Surf forecast
   
Fri 11/17 11:40pm 3 7 mph 1002.4mb 34f
11:30pm 2 7 mph 1002.4mb 34f
11:20pm 3 7 mph 1002.4mb 34f
11:10pm 3 7 mph 1002.4mb 33f
11:00pm 3 6 mph 1002.4mb 33f
10:40pm 2 5 mph 1001.7mb 33f
10:30pm  -  2 mph 1001.7mb 32f
10:20pm  -  2 mph 1001.4mb 32f
10:10pm  -  3 mph 1001.7mb 33f
10:00pm 2 3 mph 1001.7mb 33f
9:40pm  -  0 mph 1001.7mb 32f
9:30pm  -  0 mph 1001.7mb 32f
9:20pm  -  0 mph 1001.7mb 33f
9:10pm  -  0 mph 1002mb 33f
9:00pm  -  0 mph 1002mb 33f
8:40pm  -  0 mph 1003mb 32f
8:30pm  -  0 mph 1003mb 32f
8:20pm  -  0 mph 1003mb 32f
8:10pm  -  0 mph 1002.7mb 32f
8:00pm  -  0 mph 1002.7mb 32f
7:40pm  -  0 mph 1003mb 32f
7:30pm  -  0 mph 1003mb 32f
7:20pm  -  0 mph 1003mb 32f
7:10pm  -  0 mph 1003.4mb 32f
7:00pm  -  0 mph 1003.4mb 32f
6:40pm  -  3 mph 1003.4mb 33f
6:30pm 3 5 mph 1003.4mb 33f
6:20pm 2 5 mph 1003.4mb 33f
6:10pm  -  2 mph 1003.7mb 33f
6:00pm 2 3 mph 1003.7mb 34f
5:40pm  -  1 mph 1003.7mb 35f
5:30pm  -  2 mph 1003.7mb 35f
5:20pm 2 5 mph 1003.4mb 36f
5:10pm 1 3 mph 1003.4mb 36f
5:00pm 2 3 mph 1003.7mb 36f
4:40pm 3 5 mph 1003.4mb 35f
4:30pm 2 2 mph 1003.7mb 35f
4:20pm  -  2 mph 1003.7mb 36f
4:10pm  -  2 mph 1004.1mb 36f
4:00pm  -  2 mph 1004.1mb 36f
3:40pm  -  3 mph 1004.1mb 37f
3:30pm 2 8 mph 1004.1mb 37f
3:20pm 2 7 mph 1004.1mb 37f
3:10pm 1 3 mph 1004.4mb 36f
3:00pm  -  2 mph 1004.4mb 36f
2:40pm 1 3 mph 1004.1mb 35f
2:30pm 1 3 mph 1004.4mb 36f
2:20pm 3 5 mph 1004.4mb 36f
2:10pm 2 3 mph 1004.7mb 36f
2:00pm 2 3 mph 1004.7mb 37f
1:40pm  -  3 mph 1005.1mb 37f
1:30pm 2 6 mph 1004.7mb 38f
1:20pm 3 6 mph 1004.7mb 38f
1:10pm 2 9 mph 1004.7mb 38f
1:00pm 9 16 mph 1005.1mb 38f
12:40pm 13 20 mph 1003mb 38f
12:30pm 13 24 mph 1003.4mb 38f
12:24pm 13
mph
1003.4mb 38f
12:20pm 13 24 mph 1003.4mb 38f
12:10pm 14 25 mph 1004.1mb 38f
12:00pm 11 21 mph 1004.4mb 38f
11:40am 15 29 mph 1005.1mb 37f
11:30am 15 29 mph 1005.4mb 37f
11:29am 15 29 mph 1005.4mb 37f
11:23am 16 26 mph 1005.8mb 37f
11:20am 14 25 mph 1006.1mb 37f
11:10am 13 22 mph 1006.8mb 36f
11:00am 11 22 mph 1006.8mb 36f
10:40am 10 17 mph 1008.5mb 36f
10:30am 11 20 mph 1008.8mb 36f
10:23am 10 24 mph 1009.5mb 36f
10:20am 11 22 mph 1009.5mb 36f
10:10am 11 18 mph 1010.2mb 36f
10:00am 10 24 mph 1010.5mb 35f
9:40am 8 21 mph 1010.2mb 36f
9:30am 8 11 mph 1010.8mb 35f
9:22am 5 22 mph 1010.8mb 35f
9:20am 5 16 mph 1010.8mb 35f
9:10am 7 21 mph 1010.5mb 35f
9:00am 9 21 mph 1009.8mb 34f
8:40am 13 22 mph 1010.2mb 34f
8:30am 14 22 mph 1010.8mb 34f
8:22am 14 24 mph 1010.8mb 34f
8:20am 10 21 mph 1011.2mb 34f
8:10am 14 23 mph 1011.2mb 33f
8:00am 9 16 mph 1011.5mb 33f
7:40am 11 24 mph 1012.5mb 33f
7:30am 10 21 mph 1012.9mb 33f
7:22am 10
mph
1012.5mb 33f
7:20am 11 26 mph 1012.2mb 33f
7:10am 13 25 mph 1012.9mb 33f
7:00am 14 24 mph 1013.2mb 33f
6:40am 11 29 mph 1013.2mb 33f
6:30am 15 29 mph 1013.2mb 33f
6:21am 11 29 mph 1013.2mb 32f
6:20am 11 25 mph 1013.5mb 32f
6:10am 13 26 mph 1013.5mb 32f
6:00am 10 23 mph 1013.9mb 32f
5:40am 15 25 mph 1013.9mb 31f
5:30am 13 21 mph 1014.6mb 32f
5:21am 11 26 mph 1014.6mb 31f
5:20am 11 23 mph 1014.6mb 31f
5:10am 11 25 mph 1014.2mb 31f
5:00am 9 26 mph 1014.6mb 31f
4:40am 11 20 mph 1015.2mb 31f
4:30am 10 16 mph 1015.6mb 30f
4:20am 14 22 mph 1015.6mb 29f
4:10am 11 20 mph 1015.6mb 29f
4:00am 11 20 mph 1016.3mb 29f
3:40am 10 15 mph 1016.6mb 28f
3:30am 8 16 mph 1016.6mb 28f
3:20am 9 15 mph 1017.3mb 28f
3:10am 9 14 mph 1017.6mb 28f
3:00am 8 15 mph 1017.9mb 28f
2:40am 7 13 mph 1018.6mb 27f
2:30am 6 14 mph 1019mb 27f
2:20am 8 29 mph 1019.3mb 27f
2:10am 6 11 mph 1019.3mb 27f
2:00am 7 10 mph 1020mb 27f
1:40am 7 10 mph 1020mb 27f
1:30am 5 10 mph 1020.3mb 27f
1:20am 5 9 mph 1020.7mb 26f
1:10am 5 8 mph 1020.7mb 26f
1:00am 5 8 mph 1020.7mb 26f
12:50am 3 10 mph 1020.7mb 26f
12:40am 8 13 mph 1020.7mb 26f
12:30am 7 10 mph 1020.7mb 26f
12:20am 8 14 mph 1020.7mb 26f
12:10am 5 13 mph 1020.7mb 26f
12:00am 5 11 mph 1020.7mb 26f
Thu 11/16 11:50pm 6 11 mph 1021mb 26f
11:40pm 7 13 mph 1021mb 26f
11:30pm 8 13 mph 1021mb 26f
11:20pm 7 11 mph 1020.7mb 26f
11:10pm 6 11 mph 1020.7mb 26f
11:00pm 6 9 mph 1020.7mb 26f
10:50pm 5 8 mph 1021mb 26f
10:40pm 3 8 mph 1021mb 26f
10:30pm 5 7 mph 1021mb 26f
10:20pm 5 8 mph 1021mb 26f
10:10pm 5 9 mph 1021mb 26f
10:00pm 5 8 mph 1021mb 26f
9:50pm 5 7 mph 1021.3mb 26f
9:40pm 2 8 mph 1021.3mb 26f
9:30pm 6 11 mph 1021.7mb 27f
9:20pm 6 9 mph 1021.7mb 26f
9:10pm 7 9 mph 1021.7mb 26f
9:00pm 5 7 mph 1021.7mb 26f
8:50pm 5 9 mph 1022mb 26f
8:40pm 5 8 mph 1022.4mb 26f
8:30pm 3 6 mph 1022.7mb 27f
8:20pm 3 7 mph 1022.7mb 26f
8:10pm 6 8 mph 1022.7mb 27f
8:00pm 2 5 mph 1022.7mb 27f
7:50pm 2 3 mph 1023mb 27f
7:40pm 2 6 mph 1023mb 27f
7:30pm 5 7 mph 1023mb 27f
7:20pm 3 6 mph 1023.4mb 27f
7:10pm  -  5 mph 1023.4mb 27f
7:00pm  -  6 mph 1023.4mb 27f
6:50pm  -  6 mph 1023.4mb 27f
6:40pm 3 5 mph 1023.7mb 27f
6:30pm 2 11 mph 1023.7mb 27f
6:20pm 6 9 mph 1023.7mb 28f
6:10pm 6 13 mph 1023.7mb 28f
6:00pm 5 11 mph 1023.7mb 28f
5:50pm 8 11 mph 1023.7mb 28f
5:40pm 6 10 mph 1023.4mb 28f
5:30pm 7 9 mph 1023.4mb 28f
5:20pm 3 8 mph 1023.4mb 28f
5:10pm 7 14 mph 1023.4mb 28f
5:00pm 10 13 mph 1023.4mb 28f
4:50pm 7 9 mph 1023.4mb 28f
4:40pm 3 9 mph 1023mb 28f
4:30pm 9 14 mph 1023mb 28f
4:20pm 7 11 mph 1023mb 28f
4:10pm 11 14 mph 1023mb 28f
4:00pm 7 10 mph 1023.4mb 28f
3:50pm 8 11 mph 1023.4mb 29f
3:40pm 8 13 mph 1023.4mb 29f
3:30pm 10 13 mph 1023.4mb 29f
3:20pm 2 13 mph 1023.4mb 28f
3:10pm 6 14 mph 1023mb 28f
3:00pm 14 18 mph 1023mb 29f
2:50pm 8 13 mph 1023mb 29f
2:40pm 9 16 mph 1023mb 29f
2:30pm 10 14 mph 1023mb 29f
2:20pm 8 16 mph 1023mb 29f
2:10pm 9 13 mph 1023mb 29f
2:00pm 8 15 mph 1023mb 29f
1:50pm 10 15 mph 1022.7mb 29f
1:40pm 8 14 mph 1023mb 29f
1:30pm 10 15 mph 1022.7mb 29f
1:20pm 9 16 mph 1023mb 29f
1:10pm 10 14 mph 1022.7mb 29f
1:00pm 9 18 mph 1022.7mb 29f
12:50pm 10 15 mph 1022.7mb 29f
12:40pm 9 15 mph 1023mb 29f
12:30pm 8 16 mph 1022.7mb 29f
12:20pm 13 16 mph 1023mb 29f
12:10pm 11 20 mph 1022.7mb 29f
12:00pm 15 17 mph 1022.7mb 29f
11:50am 13 18 mph 1022.7mb 29f
11:40am 17 20 mph 1022.7mb 29f
11:30am 16 23 mph 1022.7mb 29f
11:20am 13 22 mph 1022.7mb 30f
11:10am 16 22 mph 1022.7mb 29f
11:00am 14 22 mph 1022.7mb 29f
10:50am 16 23 mph 1022.7mb 29f
10:40am 15 23 mph 1022.4mb 29f
10:30am 18 22 mph 1022.4mb 29f
10:20am 18 26 mph 1022.4mb 30f
10:10am 15 25 mph 1022.4mb 30f
10:00am 21 25 mph 1022mb 30f
9:50am 17 24 mph 1022mb 30f
9:40am 22 28 mph 1022mb 30f
9:30am 20 25 mph 1021.7mb 30f
9:20am 18 26 mph 1021.7mb 30f
9:10am 21 29 mph 1021.7mb 30f
9:00am 21 25 mph 1021.7mb 30f
8:50am 23 29 mph 1021.3mb 30f
8:46am 17 25 mph 1021.3mb 30f
8:40am 21 26 mph 1021mb 30f
8:30am 23 26 mph 1021mb 30f
8:20am 21 31 mph 1021mb 30f
8:10am 25 30 mph 1020.7mb 30f
8:00am 22 30 mph 1020.7mb 30f
7:50am 20 29 mph 1020.7mb 30f
7:45am 25
mph
1020.7mb 30f
7:40am 21 26 mph 1020.3mb 30f
7:30am 23 31 mph 1020mb 30f
7:20am 22 29 mph 1020mb 31f
7:10am 22 30 mph 1019.3mb 31f
7:00am 25 32 mph 1019.3mb 31f
6:50am 24 36 mph 1019.3mb 31f
6:40am 21 30 mph 1019.3mb 30f
6:30am 24 31 mph 1019.3mb 31f
6:20am 20 32 mph 1019mb 31f
6:10am 23 31 mph 1018.6mb 31f
6:00am 21 34 mph 1018.6mb 31f
5:50am 24 34 mph 1018.3mb 31f
5:40am 24 33 mph 1017.9mb 31f
5:30am 31 38 mph 1017.3mb 31f
5:20am 21 32 mph 1017.6mb 31f
5:10am 25 32 mph 1017.3mb 31f
5:00am 23 33 mph 1017.3mb 31f
4:50am 25 32 mph 1016.9mb 32f
4:40am 23 31 mph 1016.9mb 31f
4:30am 25 32 mph 1016.9mb 32f
4:25am 24 29 mph 1016.6mb 31f
4:20am 21 33 mph 1016.6mb 31f
4:10am 23 30 mph 1016.3mb 31f
4:00am 24 32 mph 1015.9mb 31f
3:50am 24 31 mph 1015.6mb 31f
3:40am 23 30 mph 1015.6mb 31f
3:30am 21 31 mph 1015.2mb 31f
3:22am 24 30 mph 1014.9mb 31f
3:20am 21 33 mph 1015.2mb 31f
3:10am 22 32 mph 1014.9mb 31f
3:00am 20 30 mph 1014.9mb 31f
2:50am 21 28 mph 1014.6mb 32f
2:43am 18
mph
1014.6mb 32f
2:40am 22 29 mph 1014.6mb 32f
2:30am 21 29 mph 1014.2mb 32f
2:21am 20 29 mph 1013.5mb 32f
2:20am 20 28 mph 1013.9mb 32f
2:10am 25 34 mph 1013.5mb 33f
2:00am 29 34 mph 1013.2mb 33f
1:50am 25 32 mph 1012.9mb 33f
1:43am 24
mph
1012.9mb 33f
1:40am 24 32 mph 1012.9mb 33f
1:30am 24 33 mph 1012.5mb 32f
1:20am 23 33 mph 1012.2mb 32f
1:10am 24 33 mph 1012.2mb 32f
1:08am 22 30 mph 1011.9mb 32f
1:00am 23 32 mph 1011.5mb 32f
12:50am 23 32 mph 1011.2mb 33f
12:40am 21 30 mph 1011.2mb 32f
12:30am 22 37 mph 1011.2mb 33f
12:20am 20 34 mph 1010.8mb 33f
12:10am 23 34 mph 1010.8mb 33f
12:07am 24 29 mph 1010.2mb 33f
12:00am 25 34 mph 1010.2mb 33f
Wed 11/15 11:50pm 20 32 mph 1010.2mb 33f
11:42pm 24
mph
1010.2mb 33f
11:40pm 22 31 mph 1009.8mb 33f
11:30pm 20 30 mph 1009.5mb 33f
11:20pm 22 29 mph 1009.5mb 33f
11:10pm 22 32 mph 1009.1mb 33f
11:04pm 23 29 mph 1008.8mb 33f
11:00pm 24 31 mph 1008.8mb 33f
10:50pm 29 40 mph 1008.8mb 34f
10:41pm 25
mph
1008.1mb 33f
10:40pm 25 36 mph 1007.8mb 33f
10:30pm 20 33 mph 1008.1mb 33f
10:20pm 22 31 mph 1007.8mb 33f
10:10pm 21 32 mph 1007.8mb 33f
10:02pm 20 32 mph 1007.5mb 34f
10:00pm 21 30 mph 1007.5mb 34f
9:50pm 21 26 mph 1007.5mb 34f
9:40pm 17 33 mph 1007.5mb 34f
9:30pm 22 33 mph 1006.8mb 34f
9:20pm 21 31 mph 1006.8mb 35f
9:10pm 21 34 mph 1006.8mb 35f
9:00pm 24 34 mph 1006.4mb 35f
8:52pm 21 29 mph 1006.1mb 35f
8:50pm 21 29 mph 1005.8mb 35f
8:40pm 21 34 mph 1005.8mb 35f
8:30pm 20 29 mph 1005.8mb 36f
8:20pm 21 31 mph 1005.4mb 36f
8:10pm 20 31 mph 1005.1mb 37f
8:00pm 21 31 mph 1004.7mb 37f
7:51pm 20 30 mph 1004.4mb 37f
7:50pm 20 25 mph 1004.7mb 37f
7:40pm 16 24 mph 1004.4mb 37f
7:30pm 18 25 mph 1004.1mb 37f
7:20pm 14 26 mph 1004.1mb 37f
7:10pm 15 23 mph 1004.1mb 37f
7:00pm 9 18 mph 1004.1mb 36f
6:50pm 13 20 mph 1003.7mb 36f
6:40pm 13 21 mph 1003.4mb 36f
6:30pm 11 22 mph 1003.4mb 37f
6:20pm 13 21 mph 1003mb 37f
6:10pm 10 20 mph 1003mb 37f
6:00pm 10 20 mph 1003mb 37f
5:50pm 8 16 mph 1003mb 37f
5:40pm 11 20 mph 1002.4mb 37f
5:30pm 9 18 mph 1002.7mb 37f
5:20pm 8 22 mph 1002.4mb 37f
5:10pm 7 21 mph 1002.4mb 37f
5:00pm 10 21 mph 1002mb 37f
4:50pm 11 20 mph 1002mb 37f
4:40pm 10 17 mph 1002mb 38f
4:30pm 8 22 mph 1002mb 38f
4:20pm 8 18 mph 1001.7mb 38f
4:10pm 7 17 mph 1001.7mb 37f
4:00pm 7 13 mph 1001.7mb 37f
3:50pm 7 14 mph 1001.7mb 37f
3:40pm 8 14 mph 1001.7mb 37f
3:30pm 7 17 mph 1001.7mb 38f
3:20pm 8 16 mph 1001.7mb 38f
3:10pm 7 14 mph 1001.7mb 39f
3:00pm 6 17 mph 1001.4mb 39f
2:50pm 5 14 mph 1001.4mb 40f
2:40pm 3 13 mph 1001.4mb 40f
2:30pm 6 15 mph 1001mb 40f
2:20pm 6 13 mph 1001mb 40f
2:10pm 7 11 mph 1001mb 40f
2:00pm 7 14 mph 1001mb 41f
1:50pm 7 10 mph 1001.4mb 41f
1:40pm 6 9 mph 1001.4mb 41f
1:30pm 6 11 mph 1001.4mb 41f
1:20pm 6 10 mph 1001.4mb 41f
1:10pm 7 10 mph 1001.4mb 41f
1:00pm 5 9 mph 1001.4mb 41f
12:50pm 7 11 mph 1001.7mb 41f
12:40pm 6 10 mph 1001.7mb 41f
12:30pm 6 10 mph 1001.7mb 41f
12:20pm 5 9 mph 1001.7mb 41f
12:10pm 3 11 mph 1001.7mb 41f
12:00pm 3 9 mph 1001.7mb 41f
11:50am 5 10 mph 1002mb 41f
11:40am 5 9 mph 1002mb 40f
11:30am 5 8 mph 1002mb 40f
11:20am 3 7 mph 1002.4mb 40f
11:10am 3 7 mph 1002.7mb 40f
11:00am 3 7 mph 1002.7mb 40f
10:50am 2 6 mph 1003mb 40f
10:40am 2 5 mph 1003mb 40f
10:30am 1 5 mph 1003mb 40f
10:20am 2 3 mph 1003.4mb 39f
10:10am 1 3 mph 1003.7mb 40f
10:00am  -  2 mph 1003.7mb 39f
9:50am  -  2 mph 1003.7mb 39f
9:40am 2 3 mph 1003.7mb 39f
9:30am  -  1 mph 1003.7mb 38f
9:20am  -  0 mph 1004.1mb 38f
9:10am  -  0 mph 1004.4mb 37f
9:00am  -  1 mph 1004.4mb 37f
8:50am  -  1 mph 1004.7mb 37f
8:40am  -  1 mph 1004.7mb 37f
8:30am  -  1 mph 1004.7mb 37f
8:20am  -  1 mph 1004.7mb 37f
8:10am  -  1 mph 1004.7mb 37f
8:00am  -  1 mph 1005.1mb 37f
7:50am  -  0 mph 1005.1mb 37f
7:40am  -  1 mph 1005.1mb 37f
7:30am  -  2 mph 1005.1mb 37f
7:20am 1 2 mph 1005.4mb 37f
7:10am  -  1 mph 1005.4mb 37f
7:00am  -  1 mph 1005.8mb 37f
6:50am  -  0 mph 1005.8mb 37f
6:40am  -  0 mph 1005.8mb 37f
6:30am  -  0 mph 1005.8mb 37f
6:20am  -  1 mph 1006.1mb 37f
6:10am  -  1 mph 1006.1mb 37f
6:00am  -  2 mph 1006.4mb 37f
5:50am 1 3 mph 1006.4mb 37f
5:40am 2 3 mph 1006.4mb 37f
5:30am 2 3 mph 1006.4mb 37f
5:20am 1 2 mph 1006.4mb 37f
5:10am  -  2 mph 1006.4mb 37f
5:00am  -  1 mph 1006.8mb 37f
4:50am  -  1 mph 1006.8mb 37f
4:40am  -  2 mph 1007.1mb 37f
4:30am 1 1 mph 1007.1mb 37f
4:20am  -  1 mph 1007.5mb 37f
4:10am  -  1 mph 1007.5mb 37f
4:00am  -  0 mph 1007.5mb 37f
3:50am  -  0 mph 1007.5mb 38f
3:40am  -  0 mph 1007.8mb 38f
3:30am  -  0 mph 1007.8mb 38f
3:20am  -  1 mph 1008.1mb 39f
3:10am  -  2 mph 1008.1mb 40f
3:00am  -  3 mph 1008.1mb 40f
2:50am 2 5 mph 1008.5mb 40f
2:40am 2 7 mph 1008.5mb 40f
2:30am 3 7 mph 1008.5mb 40f
2:20am 3 8 mph 1008.8mb 40f
2:10am 2 6 mph 1008.8mb 40f
2:00am 3 7 mph 1008.8mb 40f
1:50am 3 6 mph 1009.1mb 40f
1:40am 3 8 mph 1009.1mb 40f
1:30am 1 5 mph 1009.5mb 40f
1:20am 1 5 mph 1009.5mb 40f
1:10am 2 3 mph 1009.5mb 40f
1:00am 2 5 mph 1009.8mb 40f
12:50am 2 5 mph 1009.8mb 40f
12:40am  -  3 mph 1009.8mb 40f
12:30am 2 7 mph 1010.2mb 40f
12:20am 3 13 mph 1010.2mb 40f
12:10am 6 13 mph 1010.2mb 40f
12:00am 6 16 mph 1010.2mb 40f
Tue 11/14 11:50pm 7 14 mph 1010.5mb 40f
11:40pm 6 17 mph 1010.5mb 40f
11:30pm 7 15 mph 1010.5mb 40f
11:20pm 9 18 mph 1010.5mb 40f
11:10pm 6 18 mph 1010.8mb 40f
11:00pm 7 14 mph 1010.8mb 40f
10:50pm 7 13 mph 1011.2mb 40f
10:40pm 8 14 mph 1011.2mb 40f
10:30pm 6 13 mph 1011.5mb 40f
10:20pm 7 11 mph 1011.5mb 40f
10:10pm 3 13 mph 1011.9mb 40f
10:00pm 1 5 mph 1011.9mb 39f
9:50pm 3 7 mph 1011.9mb 39f
9:40pm 3 8 mph 1011.9mb 40f
9:30pm 3 6 mph 1012.2mb 39f
9:20pm 2 6 mph 1012.2mb 39f
9:10pm 3 7 mph 1012.2mb 40f
9:00pm 3 7 mph 1012.2mb 39f
8:50pm 2 7 mph 1012.2mb 39f
8:40pm 3 8 mph 1012.2mb 39f
8:30pm 3 10 mph 1012.2mb 39f
8:20pm 6 9 mph 1012.2mb 39f
8:10pm 3 9 mph 1012.2mb 39f
8:00pm 6 9 mph 1012.2mb 39f
7:50pm 3 8 mph 1012.5mb 39f
7:40pm 5 8 mph 1012.5mb 39f
7:30pm 5 7 mph 1012.5mb 39f
7:20pm 2 8 mph 1012.9mb 39f
7:10pm 6 9 mph 1013.2mb 39f
7:00pm 5 7 mph 1013.2mb 39f
6:50pm 3 7 mph 1013.2mb 38f
6:40pm 5 6 mph 1013.2mb 38f
6:30pm 5 7 mph 1013.5mb 38f
6:20pm 5 7 mph 1013.5mb 39f
6:10pm 3 6 mph 1013.5mb 39f
6:00pm 2 5 mph 1013.9mb 38f
5:50pm 2 5 mph 1013.9mb 39f
5:40pm 2 7 mph 1013.9mb 39f
5:30pm 6 8 mph 1013.9mb 39f
5:20pm 3 8 mph 1013.9mb 39f
5:10pm 5 10 mph 1013.9mb 39f
5:00pm 5 9 mph 1013.9mb 39f
4:50pm 5 10 mph 1013.9mb 39f
4:40pm 2 8 mph 1013.9mb 39f
4:30pm 5 10 mph 1013.9mb 39f
4:20pm 5 10 mph 1013.9mb 39f
4:10pm 5 10 mph 1013.9mb 39f
4:00pm 6 10 mph 1014.2mb 39f
3:50pm 5 11 mph 1014.2mb 39f
3:40pm 6 10 mph 1014.2mb 39f
3:30pm 7 10 mph 1014.6mb 39f
3:20pm 6 9 mph 1014.6mb 39f
3:10pm 5 8 mph 1014.9mb 39f
3:00pm 6 9 mph 1014.9mb 39f
2:50pm 5 11 mph 1014.9mb 39f
2:40pm 5 10 mph 1014.9mb 39f
2:30pm 5 9 mph 1014.9mb 39f
2:20pm 5 9 mph 1014.9mb 39f
2:10pm 6 15 mph 1015.2mb 39f
2:00pm 6 13 mph 1014.9mb 39f
1:50pm 6 13 mph 1014.9mb 39f
1:40pm 2 9 mph 1015.2mb 39f
1:30pm 6 9 mph 1015.2mb 39f
1:20pm 6 9 mph 1015.6mb 39f
1:10pm 5 10 mph 1015.6mb 39f
1:00pm 6 11 mph 1015.6mb 39f
12:50pm 6 9 mph 1015.9mb 39f
12:40pm 3 11 mph 1016.3mb 39f
12:30pm 6 13 mph 1016.3mb 39f
12:20pm 6 13 mph 1016.3mb 39f
12:10pm 6 13 mph 1016.6mb 40f
12:00pm 5 13 mph 1016.6mb 39f
11:50am 6 11 mph 1016.9mb 39f
11:40am 9 13 mph 1016.9mb 39f
11:30am 7 13 mph 1017.3mb 39f
11:20am 6 10 mph 1017.3mb 39f
11:10am 5 10 mph 1017.6mb 39f
11:00am 6 10 mph 1017.9mb 39f
10:50am 3 13 mph 1017.9mb 39f
10:40am 7 10 mph 1017.9mb 38f
10:30am 6 13 mph 1017.9mb 38f
10:20am 9 17 mph 1017.9mb 38f
10:10am 7 15 mph 1017.9mb 38f
10:00am 8 13 mph 1017.9mb 38f
9:50am 8 15 mph 1018.3mb 38f
9:40am 8 11 mph 1018.3mb 38f
9:30am 7 14 mph 1018.3mb 38f
9:20am 6 13 mph 1018.3mb 38f
9:10am 7 14 mph 1018.6mb 38f
9:00am 5 10 mph 1018.6mb 38f
8:50am 5 8 mph 1018.6mb 37f
8:40am 5 11 mph 1018.6mb 37f
8:30am 5 9 mph 1018.6mb 37f
8:20am 6 10 mph 1019mb 37f
8:10am 5 10 mph 1019mb 37f
8:00am 6 9 mph 1019mb 37f
7:50am 5 10 mph 1019mb 37f
7:40am 2 7 mph 1019mb 36f